.
WxDataArchive / Data Records for 2014-07-05
2014-07-04 July 2014 2014-07-06

Data Records for Saturday, 05 July 2014

Time	Temp	Chill	HIndex	Humid	Dewpt	 Wind 	HiWind	WindDir	Rain 	Barom
-----	----	-----	------	-----	-----	------	------	-------	-----	-----
00:00	59.0	59.0	59.0	76	51.4	0	0	---	0.00	30.277 
00:05	58.9	58.9	58.9	77	51.7	0	0	---	0.00	30.277 
00:10	58.7	58.7	58.7	77	51.5	0	0	---	0.00	30.277 
00:15	58.7	58.7	58.7	77	51.5	0	0	---	0.00	30.272 
00:20	58.6	58.6	58.6	78	51.8	0	0	---	0.00	30.272 
00:25	58.4	58.4	58.4	79	51.9	0	0	---	0.00	30.272 
00:30	58.3	58.3	58.3	79	51.8	0	0	---	0.00	30.275 
00:35	58.1	58.1	58.1	80	52.0	0	0	---	0.00	30.275 
00:40	58.0	58.0	58.0	80	51.9	0	0	---	0.00	30.275 
00:45	57.8	57.8	57.8	81	52.0	0	0	---	0.00	30.273 
00:50	57.6	57.6	57.6	81	51.8	0	0	---	0.00	30.273 
00:55	57.6	57.6	57.6	81	51.8	0	0	---	0.00	30.273 
01:00	57.5	57.5	57.5	82	52.0	0	0	---	0.00	30.268 
01:05	57.3	57.3	57.3	82	51.9	0	0	---	0.00	30.268 
01:10	57.2	57.2	57.2	82	51.8	0	0	---	0.00	30.268 
01:15	57.0	57.0	57.0	82	51.6	0	0	---	0.00	30.267 
01:20	57.0	57.0	57.0	82	51.6	0	0	---	0.00	30.267 
01:25	56.9	56.9	56.9	83	51.8	0	0	---	0.00	30.267 
01:30	56.7	56.7	56.7	83	51.6	0	0	---	0.00	30.270 
01:35	56.5	56.5	56.5	83	51.4	0	0	---	0.00	30.270 
01:40	56.3	56.3	56.3	82	50.9	0	0	---	0.00	30.270 
01:45	56.2	56.2	56.2	82	50.8	0	0	---	0.00	30.274 
01:50	56.0	56.0	56.0	82	50.6	0	0	---	0.00	30.274 
01:55	56.0	56.0	56.0	82	50.6	0	0	---	0.00	30.274 
02:00	55.9	55.9	55.9	82	50.5	0	0	---	0.00	30.272 
02:05	55.7	55.7	55.7	82	50.3	0	0	---	0.00	30.272 
02:10	55.7	55.7	55.7	82	50.3	0	0	---	0.00	30.272 
02:15	55.6	55.6	55.6	83	50.5	0	0	---	0.00	30.271 
02:20	55.4	55.4	55.4	82	50.0	0	0	---	0.00	30.271 
02:25	55.3	55.3	55.3	82	49.9	0	0	---	0.00	30.271 
02:30	55.1	55.1	55.1	83	50.0	0	0	---	0.00	30.269 
02:35	55.1	55.1	55.1	83	50.0	0	0	---	0.00	30.269 
02:40	55.0	55.0	55.0	84	50.3	0	0	---	0.00	30.269 
02:45	54.8	54.8	54.8	84	50.1	0	0	---	0.00	30.263 
02:50	54.7	54.7	54.7	84	50.0	0	0	---	0.00	30.263 
02:55	54.7	54.7	54.7	84	50.0	0	0	---	0.00	30.263 
03:00	54.5	54.5	54.5	84	49.8	0	0	---	0.00	30.260 
03:05	54.4	54.4	54.4	84	49.7	0	0	---	0.00	30.260 
03:10	54.4	54.4	54.4	85	50.0	0	0	---	0.00	30.260 
03:15	54.2	54.2	54.2	85	49.8	0	0	---	0.00	30.261 
03:20	54.1	54.1	54.1	85	49.7	0	0	---	0.00	30.261 
03:25	53.9	53.9	53.9	85	49.5	0	0	---	0.00	30.261 
03:30	53.9	53.9	53.9	86	49.8	0	0	---	0.00	30.258 
03:35	53.8	53.8	53.8	86	49.7	0	0	---	0.00	30.258 
03:40	53.8	53.8	53.8	87	50.0	0	0	---	0.00	30.258 
03:45	53.6	53.6	53.6	87	49.8	0	0	---	0.00	30.258 
03:50	53.6	53.6	53.6	87	49.8	0	0	---	0.00	30.258 
03:55	53.6	53.6	53.6	88	50.1	0	0	---	0.00	30.258 
04:00	53.6	53.6	53.6	88	50.1	0	0	---	0.00	30.261 
04:05	53.6	53.6	53.6	88	50.1	0	0	---	0.00	30.261 
04:10	53.6	53.6	53.6	89	50.4	0	0	---	0.00	30.261 
04:15	53.6	53.6	53.6	89	50.4	0	0	---	0.00	30.259 
04:20	53.5	53.5	53.5	89	50.3	0	0	---	0.00	30.259 
04:25	53.3	53.3	53.3	89	50.1	0	0	---	0.00	30.259 
04:30	53.3	53.3	53.3	89	50.1	0	0	---	0.00	30.251 
04:35	53.2	53.2	53.2	89	50.0	0	0	---	0.00	30.251 
04:40	53.1	53.1	53.1	89	49.9	0	0	---	0.00	30.251 
04:45	52.9	52.9	52.9	89	49.7	0	0	---	0.00	30.251 
04:50	52.8	52.8	52.8	89	49.6	0	0	---	0.00	30.251 
04:55	52.8	52.8	52.8	90	49.9	0	0	---	0.00	30.251 
05:00	52.8	52.8	52.8	90	49.9	0	0	---	0.00	30.259 
05:05	52.6	52.6	52.6	90	49.7	0	0	---	0.00	30.259 
05:10	52.6	52.6	52.6	90	49.7	0	0	---	0.00	30.259 
05:15	52.5	52.5	52.5	90	49.7	0	0	---	0.00	30.264 
05:20	52.5	52.5	52.5	90	49.7	0	0	---	0.00	30.264 
05:25	52.3	52.3	52.3	90	49.5	0	0	---	0.00	30.264 
05:30	52.3	52.3	52.3	90	49.5	0	0	---	0.00	30.270 
05:35	52.2	52.2	52.2	91	49.7	0	0	---	0.00	30.270 
05:40	52.2	52.2	52.2	91	49.7	0	0	---	0.00	30.270 
05:45	52.2	52.2	52.2	91	49.7	0	0	---	0.00	30.274 
05:50	52.0	52.0	52.0	91	49.5	0	0	---	0.00	30.274 
05:55	52.0	52.0	52.0	91	49.5	0	0	---	0.00	30.274 
06:00	51.9	51.9	51.9	91	49.4	0	0	---	0.00	30.272 
06:05	51.9	51.9	51.9	91	49.4	0	0	---	0.00	30.272 
06:10	51.9	51.9	51.9	91	49.4	0	0	---	0.00	30.272 
06:15	51.7	51.7	51.7	91	49.2	0	0	---	0.00	30.273 
06:20	51.7	51.7	51.7	91	49.2	0	0	---	0.00	30.273 
06:25	51.6	51.6	51.6	91	49.1	0	0	---	0.00	30.273 
06:30	51.6	51.6	51.6	92	49.4	0	0	---	0.00	30.280 
06:35	51.6	51.6	51.6	92	49.4	0	0	---	0.00	30.280 
06:40	51.6	51.6	51.6	92	49.4	0	0	---	0.00	30.280 
06:45	51.6	51.6	51.6	92	49.4	0	0	---	0.00	30.280 
06:50	51.7	51.7	51.7	92	49.5	0	0	---	0.00	30.280 
06:55	51.9	51.9	51.9	92	49.6	0	0	---	0.00	30.280 
07:00	52.2	52.2	52.2	92	49.9	0	0	---	0.00	30.281 
07:05	52.3	52.3	52.3	92	50.0	0	0	---	0.00	30.281 
07:10	52.6	52.6	52.6	92	50.3	0	0	---	0.00	30.281 
07:15	52.9	52.9	52.9	93	50.9	0	0	---	0.00	30.284 
07:20	53.2	53.2	53.2	93	51.2	0	0	---	0.00	30.284 
07:25	53.6	53.6	53.6	93	51.6	0	0	---	0.00	30.284 
07:30	54.2	54.2	54.2	93	52.2	0	0	---	0.00	30.284 
07:35	55.3	55.3	55.3	93	53.3	0	0	---	0.00	30.284 
07:40	56.3	56.3	56.3	91	53.7	0	0	---	0.00	30.284 
07:45	56.7	56.7	56.7	90	53.8	0	0	---	0.00	30.284 
07:50	57.0	57.0	57.0	88	53.5	0	0	---	0.00	30.284 
07:55	58.0	58.0	58.0	86	53.8	0	0	---	0.00	30.284 
08:00	59.2	59.2	59.2	81	53.4	0	0	---	0.00	30.282 
08:05	60.4	60.4	60.4	76	52.8	0	0	---	0.00	30.282 
08:10	61.6	61.6	61.6	71	52.1	0	1	315	0.00	30.282 
08:15	62.6	62.6	62.6	68	51.9	0	1	315	0.00	30.279 
08:20	63.7	63.7	63.7	67	52.5	0	1	315	0.00	30.279 
08:25	64.5	64.5	64.5	65	52.5	0	1	315	0.00	30.279 
08:30	65.5	65.5	65.5	62	52.1	0	2	315	0.00	30.274 
08:35	66.1	66.1	66.1	61	52.3	0	2	315	0.00	30.274 
08:40	66.8	66.8	66.8	58	51.5	0	3	315	0.00	30.274 
08:45	67.4	67.4	67.4	56	51.1	0	2	90	0.00	30.271 
08:50	67.9	67.9	67.9	54	50.6	0	3	90	0.00	30.271 
08:55	68.4	68.4	68.4	54	51.1	0	2	90	0.00	30.271 
09:00	69.1	69.1	69.1	53	51.2	0	2	90	0.00	30.271 
09:05	69.6	69.6	69.6	52	51.2	0	2	90	0.00	30.271 
09:10	70.1	70.1	70.1	53	52.2	0	1	90	0.00	30.271 
09:15	70.8	70.8	70.8	53	52.8	0	1	90	0.00	30.276 
09:20	70.9	70.9	70.9	50	51.3	0	3	90	0.00	30.276 
09:25	70.9	70.9	70.9	49	50.8	0	2	90	0.00	30.276 
09:30	71.3	71.3	71.3	49	51.1	0	1	90	0.00	30.279 
09:35	71.8	71.8	71.8	47	50.5	0	2	90	0.00	30.279 
09:40	72.3	72.3	72.3	49	52.1	0	2	90	0.00	30.279 
09:45	72.5	72.5	72.5	49	52.2	0	3	90	0.00	30.273 
09:50	72.5	72.5	72.5	50	52.8	0	2	90	0.00	30.273 
09:55	72.1	72.1	72.1	51	53.0	0	1	90	0.00	30.273 
10:00	72.7	72.7	72.7	48	51.9	0	2	90	0.00	30.273 
10:05	73.2	73.2	73.2	47	51.7	0	2	90	0.00	30.273 
10:10	73.5	73.5	73.5	45	50.8	0	3	90	0.00	30.273 
10:15	74.0	74.0	74.0	46	51.9	0	1	90	0.00	30.277 
10:20	74.2	74.2	74.2	48	53.2	0	1	90	0.00	30.277 
10:25	74.4	74.4	74.4	48	53.4	0	2	90	0.00	30.277 
10:30	74.6	74.6	74.6	45	51.8	0	2	90	0.00	30.274 
10:35	74.7	74.7	74.7	45	51.9	0	2	90	0.00	30.274 
10:40	75.3	75.3	77.7	43	51.2	0	2	90	0.00	30.274 
10:45	75.4	75.4	77.7	45	52.6	0	3	90	0.00	30.274 
10:50	75.6	75.6	77.8	43	51.5	0	1	90	0.00	30.274 
10:55	76.1	76.1	78.0	45	53.2	0	3	90	0.00	30.274 
11:00	76.5	76.5	78.1	42	51.7	0	3	112	0.00	30.266 
11:05	76.8	76.8	78.0	38	49.2	1	3	112	0.00	30.266 
11:10	76.8	76.8	78.0	38	49.2	0	2	112	0.00	30.266 
11:15	76.7	76.7	77.9	36	47.7	1	5	112	0.00	30.274 
11:20	76.7	76.7	78.2	43	52.5	0	2	90	0.00	30.274 
11:25	76.7	76.7	78.1	41	51.2	0	2	90	0.00	30.274 
11:30	76.7	76.7	78.1	40	50.5	0	1	90	0.00	30.275 
11:35	77.0	77.0	78.3	41	51.5	0	2	90	0.00	30.275 
11:40	77.0	77.0	78.2	39	50.1	0	2	90	0.00	30.275 
11:45	77.2	77.2	78.3	40	51.0	0	2	22	0.00	30.275 
11:50	77.4	77.4	78.6	43	53.1	0	2	22	0.00	30.275 
11:55	77.7	77.7	78.6	41	52.1	1	4	22	0.00	30.275 
12:00	77.7	77.7	78.5	39	50.7	0	3	45	0.00	30.274 
12:05	77.7	77.7	78.5	39	50.7	0	2	45	0.00	30.274 
12:10	77.6	77.6	78.5	39	50.7	1	3	45	0.00	30.274 
12:15	77.7	77.7	78.6	40	51.4	1	2	45	0.00	30.261 
12:20	77.9	77.9	78.6	39	50.9	0	4	45	0.00	30.261 
12:25	78.1	78.1	78.6	37	49.7	1	3	45	0.00	30.261 
12:30	77.9	77.9	78.7	41	52.3	0	3	0	0.00	30.254 
12:35	78.1	78.1	78.6	37	49.7	1	5	90	0.00	30.254 
12:40	77.7	77.7	78.5	38	50.0	1	5	90	0.00	30.254 
12:45	77.7	77.7	78.5	39	50.7	0	3	90	0.00	30.243 
12:50	77.9	77.9	78.5	37	49.5	0	2	90	0.00	30.243 
12:55	77.9	77.9	78.6	39	50.9	0	3	90	0.00	30.243 
13:00	78.1	78.1	78.5	36	48.9	1	2	90	0.00	30.240 
13:05	78.3	78.3	78.6	35	48.4	1	2	90	0.00	30.240 
13:10	78.3	78.3	78.9	41	52.6	1	3	90	0.00	30.240 
13:15	78.1	78.1	78.8	40	51.8	1	3	90	0.00	30.241 
13:20	78.1	78.1	78.7	38	50.4	0	2	90	0.00	30.241 
13:25	78.1	78.1	78.7	38	50.4	2	4	90	0.00	30.241 
13:30	78.1	78.1	78.8	40	51.8	0	2	112	0.00	30.228 
13:35	78.1	78.1	78.6	37	49.7	0	2	225	0.00	30.228 
13:40	78.3	78.3	78.6	36	49.1	0	1	225	0.00	30.228 
13:45	78.6	78.6	78.8	36	49.4	0	2	225	0.00	30.222 
13:50	78.8	78.8	79.1	39	51.7	0	2	225	0.00	30.222 
13:55	78.8	78.8	79.1	39	51.7	1	3	112	0.00	30.222 
14:00	78.8	78.8	78.9	36	49.6	1	3	315	0.00	30.222 
14:05	78.8	78.8	79.1	39	51.7	0	1	45	0.00	30.222 
14:10	78.6	78.6	78.9	37	50.1	0	1	45	0.00	30.222 
14:15	78.8	78.8	78.9	36	49.6	0	2	338	0.00	30.218 
14:20	78.6	78.6	78.7	35	48.6	0	2	338	0.00	30.218 
14:25	78.6	78.6	78.7	35	48.6	1	3	338	0.00	30.218 
14:30	78.6	78.6	78.8	36	49.4	1	3	90	0.00	30.211 
14:35	78.6	78.6	78.8	36	49.4	1	3	90	0.00	30.211 
14:40	78.8	78.8	79.0	38	51.0	0	2	90	0.00	30.211 
14:45	79.0	79.0	79.0	36	49.7	1	4	90	0.00	30.208 
14:50	79.2	79.2	79.2	37	50.7	1	4	90	0.00	30.208 
14:55	79.0	79.0	79.0	35	49.0	1	3	292	0.00	30.208 
15:00	78.8	78.8	78.8	35	48.8	0	3	90	0.00	30.212 
15:05	79.2	79.2	79.1	35	49.2	0	3	292	0.00	30.212 
15:10	79.0	79.0	78.9	34	48.2	1	3	292	0.00	30.212 
15:15	78.8	78.8	78.8	35	48.8	1	3	292	0.00	30.207 
15:20	79.2	79.2	79.2	37	50.7	1	3	292	0.00	30.207 
15:25	79.2	79.2	79.2	37	50.7	1	3	45	0.00	30.207 
15:30	79.4	79.4	79.2	35	49.3	0	3	112	0.00	30.198 
15:35	79.4	79.4	79.2	36	50.1	1	5	112	0.00	30.198 
15:40	79.6	79.6	79.4	37	51.0	0	2	90	0.00	30.198 
15:45	79.4	79.4	79.1	34	48.6	0	2	90	0.00	30.192 
15:50	79.0	79.0	79.1	37	50.5	0	3	90	0.00	30.192 
15:55	78.8	78.8	79.1	39	51.7	0	2	90	0.00	30.192 
16:00	78.8	78.8	78.8	35	48.8	1	3	90	0.00	30.182 
16:05	78.8	78.8	78.9	36	49.6	0	1	90	0.00	30.182 
16:10	78.6	78.6	78.8	36	49.4	1	5	90	0.00	30.182 
16:15	78.3	78.3	78.6	35	48.4	1	2	45	0.00	30.177 
16:20	78.1	78.1	78.5	36	48.9	0	2	0	0.00	30.177 
16:25	78.1	78.1	78.6	37	49.7	0	2	0	0.00	30.177 
16:30	77.9	77.9	78.5	37	49.5	0	2	0	0.00	30.171 
16:35	77.7	77.7	78.4	37	49.3	0	1	0	0.00	30.171 
16:40	77.7	77.7	78.5	39	50.7	1	3	0	0.00	30.171 
16:45	77.6	77.6	78.5	39	50.7	1	3	112	0.00	30.169 
16:50	77.6	77.6	78.5	39	50.7	0	2	112	0.00	30.169 
16:55	77.4	77.4	78.4	39	50.5	0	2	112	0.00	30.169 
17:00	77.2	77.2	78.2	38	49.6	0	2	112	0.00	30.168 
17:05	77.2	77.2	78.2	37	48.9	0	1	112	0.00	30.168 
17:10	77.2	77.2	78.3	39	50.3	0	2	112	0.00	30.168 
17:15	77.2	77.2	78.2	38	49.6	0	1	112	0.00	30.165 
17:20	77.2	77.2	78.3	40	51.0	0	1	292	0.00	30.165 
17:25	77.2	77.2	78.4	42	52.3	0	1	292	0.00	30.165 
17:30	77.6	77.6	78.5	40	51.3	0	1	292	0.00	30.156 
17:35	77.7	77.7	78.5	39	50.7	0	1	292	0.00	30.156 
17:40	77.9	77.9	78.6	39	50.9	0	1	292	0.00	30.156 
17:45	77.9	77.9	78.7	40	51.6	0	1	292	0.00	30.151 
17:50	77.7	77.7	78.6	40	51.4	0	2	292	0.00	30.151 
17:55	77.4	77.4	78.4	39	50.5	0	1	292	0.00	30.151 
18:00	77.2	77.2	78.3	40	51.0	0	2	292	0.00	30.146 
18:05	77.0	77.0	78.2	40	50.8	1	3	292	0.00	30.146 
18:10	76.8	76.8	78.1	40	50.6	0	1	292	0.00	30.146 
18:15	77.0	77.0	78.3	41	51.5	0	1	292	0.00	30.142 
18:20	77.2	77.2	78.4	41	51.7	0	1	292	0.00	30.142 
18:25	77.2	77.2	78.3	40	51.0	0	2	292	0.00	30.142 
18:30	77.2	77.2	78.4	41	51.7	0	2	292	0.00	30.138 
18:35	77.0	77.0	78.2	39	50.1	0	1	292	0.00	30.138 
18:40	76.8	76.8	78.1	40	50.6	0	2	292	0.00	30.138 
18:45	76.8	76.8	78.2	41	51.3	0	0	---	0.00	30.133 
18:50	77.0	77.0	78.3	41	51.5	0	3	135	0.00	30.133 
18:55	77.2	77.2	78.3	40	51.0	0	1	135	0.00	30.133 
19:00	77.2	77.2	78.4	41	51.7	0	1	135	0.00	30.126 
19:05	77.2	77.2	78.3	40	51.0	0	2	135	0.00	30.126 
19:10	77.2	77.2	78.3	39	50.3	0	2	135	0.00	30.126 
19:15	76.8	76.8	78.1	39	49.9	1	4	292	0.00	30.118 
19:20	76.8	76.8	78.1	40	50.6	0	1	292	0.00	30.118 
19:25	76.7	76.7	78.1	40	50.5	0	3	292	0.00	30.118 
19:30	76.5	76.5	78.0	39	49.7	0	3	68	0.00	30.117 
19:35	76.5	76.5	78.0	40	50.4	0	2	68	0.00	30.117 
19:40	76.3	76.3	77.9	40	50.2	0	1	68	0.00	30.117 
19:45	76.0	76.0	77.9	41	50.6	0	1	68	0.00	30.119 
19:50	75.8	75.8	77.8	41	50.4	0	1	68	0.00	30.119 
19:55	75.6	75.6	77.7	42	50.9	0	0	---	0.00	30.119 
20:00	75.3	75.3	77.7	43	51.2	0	0	---	0.00	30.119 
20:05	75.1	75.1	77.6	43	51.1	0	0	---	0.00	30.119 
20:10	75.1	75.1	77.6	43	51.1	0	1	68	0.00	30.119 
20:15	74.9	74.9	74.9	42	50.2	0	1	68	0.00	30.110 
20:20	74.9	74.9	74.9	42	50.2	0	0	---	0.00	30.110 
20:25	74.7	74.7	74.7	43	50.7	0	1	68	0.00	30.110 
20:30	74.6	74.6	74.6	43	50.6	0	0	---	0.00	30.107 
20:35	74.4	74.4	74.4	43	50.4	0	0	---	0.00	30.107 
20:40	74.2	74.2	74.2	43	50.2	0	0	---	0.00	30.107 
20:45	74.0	74.0	74.0	44	50.7	0	0	---	0.00	30.098 
20:50	73.9	73.9	73.9	45	51.2	0	0	---	0.00	30.098 
20:55	73.7	73.7	73.7	44	50.4	0	0	---	0.00	30.098 
21:00	73.5	73.5	73.5	45	50.8	0	0	---	0.00	30.096 
21:05	73.3	73.3	73.3	46	51.3	0	0	---	0.00	30.096 
21:10	73.0	73.0	73.0	46	51.0	0	0	---	0.00	30.096 
21:15	72.8	72.8	72.8	47	51.4	0	0	---	0.00	30.090 
21:20	72.5	72.5	72.5	47	51.1	0	0	---	0.00	30.090 
21:25	72.3	72.3	72.3	49	52.1	0	0	---	0.00	30.090 
21:30	72.0	72.0	72.0	50	52.3	0	0	---	0.00	30.082 
21:35	71.6	71.6	71.6	51	52.5	0	0	---	0.00	30.082 
21:40	71.1	71.1	71.1	52	52.6	0	0	---	0.00	30.082 
21:45	70.8	70.8	70.8	54	53.3	0	0	---	0.00	30.078 
21:50	70.4	70.4	70.4	55	53.4	0	0	---	0.00	30.078 
21:55	70.1	70.1	70.1	55	53.2	0	0	---	0.00	30.078 
22:00	69.6	69.6	69.6	56	53.2	0	0	---	0.00	30.079 
22:05	69.4	69.4	69.4	58	54.0	0	0	---	0.00	30.079 
22:10	69.1	69.1	69.1	58	53.7	0	0	---	0.00	30.079 
22:15	68.8	68.8	68.8	59	53.9	0	0	---	0.00	30.076 
22:20	68.4	68.4	68.4	61	54.4	0	0	---	0.00	30.076 
22:25	67.9	67.9	67.9	61	53.9	0	0	---	0.00	30.076 
22:30	67.6	67.6	67.6	62	54.1	0	0	---	0.00	30.076 
22:35	67.3	67.3	67.3	62	53.8	0	0	---	0.00	30.076 
22:40	67.1	67.1	67.1	62	53.6	0	0	---	0.00	30.076 
22:45	66.8	66.8	66.8	62	53.4	0	0	---	0.00	30.076 
22:50	66.4	66.4	66.4	62	53.0	0	0	---	0.00	30.076 
22:55	66.3	66.3	66.3	63	53.3	0	0	---	0.00	30.076 
23:00	66.1	66.1	66.1	64	53.6	0	0	---	0.00	30.079 
23:05	66.0	66.0	66.0	65	53.9	0	0	---	0.00	30.079 
23:10	66.0	66.0	66.0	65	53.9	0	0	---	0.00	30.079 
23:15	66.0	66.0	66.0	65	53.9	0	0	---	0.00	30.077 
23:20	66.0	66.0	66.0	64	53.5	0	0	---	0.00	30.077 
23:25	66.0	66.0	66.0	64	53.5	0	0	---	0.00	30.077 
23:30	66.0	66.0	66.0	64	53.5	0	0	---	0.00	30.074 
23:35	66.0	66.0	66.0	64	53.5	0	0	---	0.00	30.074 
23:40	66.0	66.0	66.0	63	53.0	0	0	---	0.00	30.074 
23:45	66.0	66.0	66.0	64	53.5	0	0	---	0.00	30.074 
23:50	66.0	66.0	66.0	64	53.5	0	0	---	0.00	30.074 
23:55	66.0	66.0	66.0	64	53.5	0	0	---	0.00	30.074 

CoCoRaHS
IN-AL-39
A2 Web Hosting
Creative Commons License
GoDaddy
search engine by freefind advanced

loaded 2018-11-19 11:02:17 • last modified 2010-11-18 10:43:29
Privacy PolicyDisclaimer
• wx.awcolley.com is powered by PmWiki v.2002016 •
• all content (unless otherwise noted) © 2018 A W Colley